Time,TemperatureF,DewpointF,PressureIn,WindDirection,WindDirectionDegrees,WindSpeedMPH,WindSpeedGustMPH,Humidity,HourlyPrecipIn,Conditions,Clouds,dailyrainin,SoftwareType,DateUTC
2013-01-28 00:05:00,16.7,-5.7,30.34,WNW,294,2.0,2.0,36,0.00,,,0.00,Wunderground v.1.12,2013-01-28 05:05:00,
2013-01-28 00:07:00,16.7,-6.3,30.34,WNW,294,2.0,4.0,35,0.00,,,0.00,Wunderground v.1.12,2013-01-28 05:07:00,
2013-01-28 00:09:00,16.7,-6.3,30.34,WNW,294,2.0,4.0,35,0.00,,,0.00,Wunderground v.1.12,2013-01-28 05:09:00,
2013-01-28 00:14:00,16.7,-5.7,30.34,WNW,294,1.0,2.0,36,0.00,,,0.00,Wunderground v.1.12,2013-01-28 05:14:00,
2013-01-28 00:19:00,16.7,-5.7,30.33,WNW,294,1.0,2.0,36,0.00,,,0.00,Wunderground v.1.12,2013-01-28 05:19:00,
2013-01-28 00:24:00,16.7,-5.7,30.33,WNW,293,1.0,4.0,36,0.00,,,0.00,Wunderground v.1.12,2013-01-28 05:24:00,
2013-01-28 00:29:00,16.7,-4.6,30.33,WNW,294,1.0,1.0,38,0.00,,,0.00,Wunderground v.1.12,2013-01-28 05:29:00,
2013-01-28 00:35:00,16.5,-4.7,30.31,WNW,294,0.0,2.0,38,0.00,,,0.00,Wunderground v.1.12,2013-01-28 05:35:00,
2013-01-28 00:40:00,16.7,-5.1,30.31,WNW,294,1.0,1.0,37,0.00,,,0.00,Wunderground v.1.12,2013-01-28 05:40:00,
2013-01-28 00:46:00,16.9,-6.1,30.31,WNW,294,2.0,2.0,35,0.00,,,0.00,Wunderground v.1.12,2013-01-28 05:46:00,
2013-01-28 00:52:00,16.9,-5.5,30.31,WNW,294,2.0,4.0,36,0.00,,,0.00,Wunderground v.1.12,2013-01-28 05:52:00,
2013-01-28 00:59:00,17.0,-4.8,30.31,WNW,294,3.0,7.0,37,0.00,,,0.00,Wunderground v.1.12,2013-01-28 05:59:00,
2013-01-28 01:04:00,17.0,-5.4,30.32,WNW,294,3.0,5.0,36,0.00,,,0.00,Wunderground v.1.12,2013-01-28 06:04:00,
2013-01-28 01:09:00,17.0,-5.4,30.32,WNW,294,3.0,5.0,36,0.00,,,0.00,Wunderground v.1.12,2013-01-28 06:09:00,
2013-01-28 01:15:00,16.9,-5.5,30.32,WNW,293,3.0,4.0,36,0.00,,,0.00,Wunderground v.1.12,2013-01-28 06:15:00,
2013-01-28 01:20:00,16.7,-5.1,30.32,WNW,293,3.0,3.0,37,0.00,,,0.00,Wunderground v.1.12,2013-01-28 06:20:00,
2013-01-28 01:25:00,16.5,-4.7,30.32,WNW,293,3.0,3.0,38,0.00,,,0.00,Wunderground v.1.12,2013-01-28 06:25:00,
2013-01-28 01:30:00,16.5,-5.3,30.32,WNW,293,2.0,2.0,37,0.00,,,0.00,Wunderground v.1.12,2013-01-28 06:30:00,
2013-01-28 01:36:00,16.4,-5.4,30.32,WNW,293,2.0,2.0,37,0.00,,,0.00,Wunderground v.1.12,2013-01-28 06:36:00,
2013-01-28 01:42:00,16.4,-6.5,30.32,WNW,293,2.0,2.0,35,0.00,,,0.00,Wunderground v.1.12,2013-01-28 06:42:00,
2013-01-28 01:48:00,16.2,-6.1,30.32,WNW,293,2.0,2.0,36,0.00,,,0.00,Wunderground v.1.12,2013-01-28 06:48:00,
2013-01-28 01:53:00,16.2,-6.1,30.32,WNW,293,2.0,5.0,36,0.00,,,0.00,Wunderground v.1.12,2013-01-28 06:53:00,
2013-01-28 01:59:00,15.9,-7.0,30.32,WNW,293,2.0,2.0,35,0.00,,,0.00,Wunderground v.1.12,2013-01-28 06:59:00,
2013-01-28 02:04:00,16.4,-6.5,30.33,WNW,293,1.0,3.0,35,0.00,,,0.00,Wunderground v.1.12,2013-01-28 07:04:00,
2013-01-28 02:09:00,16.5,-6.4,30.33,WNW,294,1.0,2.0,35,0.00,,,0.00,Wunderground v.1.12,2013-01-28 07:09:00,
2013-01-28 02:15:00,16.9,-6.1,30.33,WNW,293,1.0,1.0,35,0.00,,,0.00,Wunderground v.1.12,2013-01-28 07:15:00,
2013-01-28 02:21:00,16.9,-6.7,30.33,WNW,293,1.0,3.0,34,0.00,,,0.00,Wunderground v.1.12,2013-01-28 07:21:00,
2013-01-28 02:26:00,16.7,-5.7,30.33,WNW,293,2.0,4.0,36,0.00,,,0.00,Wunderground v.1.12,2013-01-28 07:26:00,
2013-01-28 02:31:00,16.7,-6.3,30.33,WNW,293,2.0,4.0,35,0.00,,,0.00,Wunderground v.1.12,2013-01-28 07:31:00,
2013-01-28 02:36:00,16.9,-6.1,30.32,WNW,293,2.0,4.0,35,0.00,,,0.00,Wunderground v.1.12,2013-01-28 07:36:00,
2013-01-28 02:41:00,16.9,-4.9,30.32,WNW,293,2.0,2.0,37,0.00,,,0.00,Wunderground v.1.12,2013-01-28 07:41:00,
2013-01-28 02:46:00,16.9,-5.5,30.32,WNW,293,1.0,1.0,36,0.00,,,0.00,Wunderground v.1.12,2013-01-28 07:46:00,
2013-01-28 02:52:00,16.9,-6.1,30.32,WNW,293,1.0,3.0,35,0.00,,,0.00,Wunderground v.1.12,2013-01-28 07:52:00,
2013-01-28 02:57:00,16.7,-5.7,30.32,WNW,294,2.0,2.0,36,0.00,,,0.00,Wunderground v.1.12,2013-01-28 07:57:00,
2013-01-28 03:03:00,16.5,-5.9,30.31,WNW,293,1.0,2.0,36,0.00,,,0.00,Wunderground v.1.12,2013-01-28 08:03:00,
2013-01-28 03:08:00,16.2,-5.6,30.31,WNW,293,2.0,3.0,37,0.00,,,0.00,Wunderground v.1.12,2013-01-28 08:08:00,
2013-01-28 03:14:00,16.1,-5.1,30.31,WNW,293,3.0,3.0,38,0.00,,,0.00,Wunderground v.1.12,2013-01-28 08:14:00,
2013-01-28 03:19:00,16.2,-6.1,30.31,WNW,292,3.0,7.0,36,0.00,,,0.00,Wunderground v.1.12,2013-01-28 08:19:00,
2013-01-28 03:24:00,16.1,-5.1,30.31,WNW,292,4.0,6.0,38,0.00,,,0.00,Wunderground v.1.12,2013-01-28 08:24:00,
2013-01-28 03:30:00,16.2,-5.0,30.31,WNW,291,3.0,3.0,38,0.00,,,0.00,Wunderground v.1.12,2013-01-28 08:30:00,
2013-01-28 03:36:00,16.2,-5.0,30.31,WNW,291,2.0,2.0,38,0.00,,,0.00,Wunderground v.1.12,2013-01-28 08:36:00,
2013-01-28 03:41:00,16.2,-6.1,30.31,WNW,291,2.0,3.0,36,0.00,,,0.00,Wunderground v.1.12,2013-01-28 08:41:00,
2013-01-28 03:47:00,16.2,-6.1,30.31,WNW,292,1.0,3.0,36,0.00,,,0.00,Wunderground v.1.12,2013-01-28 08:47:00,
2013-01-28 03:52:00,16.2,-6.7,30.31,WNW,291,1.0,2.0,35,0.00,,,0.00,Wunderground v.1.12,2013-01-28 08:52:00,
2013-01-28 03:57:00,16.4,-6.5,30.31,WNW,292,1.0,1.0,35,0.00,,,0.00,Wunderground v.1.12,2013-01-28 08:57:00,
2013-01-28 04:04:00,16.2,-6.7,30.31,WNW,291,0.0,3.0,35,0.00,,,0.00,Wunderground v.1.12,2013-01-28 09:04:00,
2013-01-28 04:10:00,16.1,-6.2,30.31,WNW,291,0.0,0.0,36,0.00,,,0.00,Wunderground v.1.12,2013-01-28 09:10:00,
2013-01-28 04:15:00,15.9,-6.4,30.31,WNW,291,0.0,0.0,36,0.00,,,0.00,Wunderground v.1.12,2013-01-28 09:15:00,
2013-01-28 04:21:00,15.6,-6.1,30.31,WNW,291,0.0,0.0,37,0.00,,,0.00,Wunderground v.1.12,2013-01-28 09:21:00,
2013-01-28 04:26:00,15.2,-6.5,30.31,WNW,291,0.0,1.0,37,0.00,,,0.00,Wunderground v.1.12,2013-01-28 09:26:00,
2013-01-28 04:31:00,15.1,-5.5,30.31,WNW,291,1.0,1.0,39,0.00,,,0.00,Wunderground v.1.12,2013-01-28 09:31:00,
2013-01-28 04:37:00,14.4,-6.1,30.31,WNW,291,0.0,1.0,39,0.00,,,0.00,Wunderground v.1.12,2013-01-28 09:37:00,
2013-01-28 04:42:00,14.3,-6.7,30.31,WNW,291,0.0,0.0,38,0.00,,,0.00,Wunderground v.1.12,2013-01-28 09:42:00,
2013-01-28 04:49:00,14.0,-4.9,30.30,WNW,293,0.0,2.0,42,0.00,,,0.00,Wunderground v.1.12,2013-01-28 09:49:00,
2013-01-28 04:54:00,13.8,-6.1,30.30,WNW,291,0.0,0.0,40,0.00,,,0.00,Wunderground v.1.12,2013-01-28 09:54:00,
2013-01-28 04:59:00,13.8,-5.6,30.30,WNW,292,0.0,0.0,41,0.00,,,0.00,Wunderground v.1.12,2013-01-28 09:59:00,
2013-01-28 05:04:00,13.6,-4.3,30.30,WNW,291,0.0,0.0,44,0.00,,,0.00,Wunderground v.1.12,2013-01-28 10:04:00,
2013-01-28 05:09:00,13.3,-5.1,30.30,WNW,291,0.0,0.0,43,0.00,,,0.00,Wunderground v.1.12,2013-01-28 10:09:00,
2013-01-28 05:15:00,13.1,-5.2,30.30,WNW,291,0.0,0.0,43,0.00,,,0.00,Wunderground v.1.12,2013-01-28 10:15:00,
2013-01-28 05:21:00,12.9,-4.5,30.30,WNW,291,0.0,0.0,45,0.00,,,0.00,Wunderground v.1.12,2013-01-28 10:21:00,
2013-01-28 05:26:00,12.9,-5.4,30.30,WNW,291,0.0,0.0,43,0.00,,,0.00,Wunderground v.1.12,2013-01-28 10:26:00,
2013-01-28 05:32:00,13.1,-4.8,30.30,WNW,292,0.0,0.0,44,0.00,,,0.00,Wunderground v.1.12,2013-01-28 10:32:00,
2013-01-28 05:37:00,13.1,-4.8,30.30,WNW,291,0.0,0.0,44,0.00,,,0.00,Wunderground v.1.12,2013-01-28 10:37:00,
2013-01-28 05:42:00,13.1,-4.8,30.30,WNW,291,0.0,0.0,44,0.00,,,0.00,Wunderground v.1.12,2013-01-28 10:42:00,
2013-01-28 05:47:00,12.9,-4.0,30.30,WNW,291,0.0,0.0,46,0.00,,,0.00,Wunderground v.1.12,2013-01-28 10:47:00,
2013-01-28 05:53:00,12.9,-4.5,30.30,WNW,293,0.0,1.0,45,0.00,,,0.00,Wunderground v.1.12,2013-01-28 10:53:00,
2013-01-28 05:58:00,12.6,-3.4,30.30,WNW,291,0.0,0.0,48,0.00,,,0.00,Wunderground v.1.12,2013-01-28 10:58:00,
2013-01-28 06:04:00,12.9,-4.5,30.30,WNW,292,0.0,1.0,45,0.00,,,0.00,Wunderground v.1.12,2013-01-28 11:04:00,
2013-01-28 06:09:00,13.1,-3.8,30.30,WNW,291,0.0,0.0,46,0.00,,,0.00,Wunderground v.1.12,2013-01-28 11:09:00,
2013-01-28 06:15:00,13.1,-3.4,30.30,WNW,291,0.0,0.0,47,0.00,,,0.00,Wunderground v.1.12,2013-01-28 11:15:00,
2013-01-28 06:20:00,12.9,-3.6,30.31,WNW,291,0.0,0.0,47,0.00,,,0.00,Wunderground v.1.12,2013-01-28 11:20:00,
2013-01-28 06:26:00,12.8,-3.7,30.31,WNW,291,0.0,0.0,47,0.00,,,0.00,Wunderground v.1.12,2013-01-28 11:26:00,
2013-01-28 06:32:00,12.8,-1.9,30.31,WNW,291,0.0,0.0,51,0.00,,,0.00,Wunderground v.1.12,2013-01-28 11:32:00,
2013-01-28 06:39:00,12.8,-4.1,30.31,WNW,291,0.0,0.0,46,0.00,,,0.00,Wunderground v.1.12,2013-01-28 11:39:00,
2013-01-28 06:44:00,12.9,-3.6,30.31,WNW,291,0.0,0.0,47,0.00,,,0.00,Wunderground v.1.12,2013-01-28 11:44:00,
2013-01-28 06:49:00,12.9,-4.0,30.31,WNW,292,0.0,0.0,46,0.00,,,0.00,Wunderground v.1.12,2013-01-28 11:49:00,
2013-01-28 06:54:00,12.9,-3.6,30.31,WNW,291,0.0,0.0,47,0.00,,,0.00,Wunderground v.1.12,2013-01-28 11:54:00,
2013-01-28 07:00:00,13.1,-2.5,30.31,WNW,291,0.0,0.0,49,0.00,,,0.00,Wunderground v.1.12,2013-01-28 12:00:00,
2013-01-28 07:06:00,13.3,-1.1,30.30,WNW,291,0.0,0.0,52,0.00,,,0.00,Wunderground v.1.12,2013-01-28 12:06:00,
2013-01-28 07:11:00,13.5,-0.9,30.30,WNW,291,0.0,0.0,52,0.00,,,0.00,Wunderground v.1.12,2013-01-28 12:11:00,
2013-01-28 07:16:00,13.5,-2.6,30.30,WNW,291,0.0,0.0,48,0.00,,,0.00,Wunderground v.1.12,2013-01-28 12:16:00,
2013-01-28 07:22:00,13.6,-3.4,30.30,WNW,291,0.0,0.0,46,0.00,,,0.00,Wunderground v.1.12,2013-01-28 12:22:00,
2013-01-28 07:27:00,14.0,-3.0,30.30,WNW,291,0.0,0.0,46,0.00,,,0.00,Wunderground v.1.12,2013-01-28 12:27:00,
2013-01-28 07:32:00,14.1,-2.9,30.30,WNW,291,0.0,0.0,46,0.00,,,0.00,Wunderground v.1.12,2013-01-28 12:32:00,
2013-01-28 07:37:00,14.4,0.8,30.30,WNW,291,0.0,0.0,54,0.00,,,0.00,Wunderground v.1.12,2013-01-28 12:37:00,
2013-01-28 07:43:00,14.8,2.3,30.30,WNW,292,0.0,0.0,57,0.00,,,0.00,Wunderground v.1.12,2013-01-28 12:43:00,
2013-01-28 07:49:00,14.9,1.2,30.30,N/A,-737280,0.0,0.0,54,0.00,,,0.00,Wunderground v.1.12,2013-01-28 12:49:00,
2013-01-28 07:55:00,15.2,1.5,30.30,WNW,291,0.0,0.0,54,0.00,,,0.00,Wunderground v.1.12,2013-01-28 12:55:00,
2013-01-28 08:00:00,15.7,0.7,30.30,WNW,291,0.0,0.0,51,0.00,,,0.00,Wunderground v.1.12,2013-01-28 13:00:00,
2013-01-28 08:05:00,16.2,0.8,30.30,WNW,291,1.0,2.0,50,0.00,,,0.00,Wunderground v.1.12,2013-01-28 13:05:00,
2013-01-28 08:11:00,17.0,0.7,30.30,WNW,291,2.0,2.0,48,0.00,,,0.00,Wunderground v.1.12,2013-01-28 13:11:00,
2013-01-28 08:17:00,17.5,0.7,30.30,WNW,291,2.0,2.0,47,0.00,,,0.00,Wunderground v.1.12,2013-01-28 13:17:00,
2013-01-28 08:22:00,17.8,0.9,30.29,WNW,291,1.0,1.0,47,0.00,,,0.00,Wunderground v.1.12,2013-01-28 13:22:00,
2013-01-28 08:27:00,18.1,-0.7,30.29,WNW,290,1.0,3.0,43,0.00,,,0.00,Wunderground v.1.12,2013-01-28 13:27:00,
2013-01-28 08:34:00,18.3,-1.0,30.29,WNW,290,2.0,3.0,42,0.00,,,0.00,Wunderground v.1.12,2013-01-28 13:34:00,
2013-01-28 08:39:00,18.6,-0.2,30.29,WNW,290,1.0,2.0,43,0.00,,,0.00,Wunderground v.1.12,2013-01-28 13:39:00,
2013-01-28 08:45:00,18.9,-1.0,30.29,WNW,290,1.0,3.0,41,0.00,,,0.00,Wunderground v.1.12,2013-01-28 13:45:00,
2013-01-28 08:51:00,19.1,-1.3,30.29,WNW,290,1.0,1.0,40,0.00,,,0.00,Wunderground v.1.12,2013-01-28 13:51:00,
2013-01-28 08:57:00,19.1,-2.4,30.29,WNW,289,2.0,4.0,38,0.00,,,0.00,Wunderground v.1.12,2013-01-28 13:57:00,
2013-01-28 09:02:00,19.2,-2.3,30.29,WNW,289,2.0,2.0,38,0.00,,,0.00,Wunderground v.1.12,2013-01-28 14:02:00,
2013-01-28 09:09:00,19.7,-3.6,30.29,WNW,289,2.0,4.0,35,0.00,,,0.00,Wunderground v.1.12,2013-01-28 14:09:00,
2013-01-28 09:14:00,20.0,-2.7,30.29,WNW,288,3.0,3.0,36,0.00,,,0.00,Wunderground v.1.12,2013-01-28 14:14:00,
2013-01-28 09:19:00,20.3,-3.7,30.29,WNW,288,2.0,3.0,34,0.00,,,0.00,Wunderground v.1.12,2013-01-28 14:19:00,
2013-01-28 09:24:00,20.6,-2.8,30.29,WNW,288,1.0,2.0,35,0.00,,,0.00,Wunderground v.1.12,2013-01-28 14:24:00,
2013-01-28 09:30:00,21.0,-3.0,30.29,WNW,288,1.0,1.0,34,0.00,,,0.00,Wunderground v.1.12,2013-01-28 14:30:00,
2013-01-28 09:35:00,21.1,-3.6,30.29,WNW,287,2.0,2.0,33,0.00,,,0.00,Wunderground v.1.12,2013-01-28 14:35:00,
2013-01-28 09:41:00,21.3,-4.0,30.29,WNW,287,3.0,3.0,32,0.00,,,0.00,Wunderground v.1.12,2013-01-28 14:41:00,
2013-01-28 09:47:00,21.6,-3.8,30.29,WNW,287,2.0,2.0,32,0.00,,,0.00,Wunderground v.1.12,2013-01-28 14:47:00,
2013-01-28 09:54:00,21.6,-3.8,30.28,WNW,293,2.0,5.0,32,0.00,,,0.00,Wunderground v.1.12,2013-01-28 14:54:00,
2013-01-28 09:59:00,22.1,-2.7,30.28,WNW,287,2.0,2.0,33,0.00,,,0.00,Wunderground v.1.12,2013-01-28 14:59:00,
2013-01-28 10:04:00,22.5,-1.7,30.28,WNW,287,1.0,1.0,34,0.00,,,0.00,Wunderground v.1.12,2013-01-28 15:04:00,
2013-01-28 10:10:00,23.0,-2.5,30.28,WNW,287,1.0,2.0,32,0.00,,,0.00,Wunderground v.1.12,2013-01-28 15:10:00,
2013-01-28 10:15:00,23.2,-4.4,30.28,WNW,287,1.0,1.0,29,0.00,,,0.00,Wunderground v.1.12,2013-01-28 15:15:00,
2013-01-28 10:21:00,23.6,-4.1,30.28,WNW,287,1.0,1.0,29,0.00,,,0.00,Wunderground v.1.12,2013-01-28 15:21:00,
2013-01-28 10:26:00,23.8,-4.6,30.28,WNW,287,1.0,2.0,28,0.00,,,0.00,Wunderground v.1.12,2013-01-28 15:26:00,
2013-01-28 10:32:00,23.9,-3.8,30.28,WNW,287,2.0,2.0,29,0.00,,,0.00,Wunderground v.1.12,2013-01-28 15:32:00,
2013-01-28 10:37:00,24.2,-5.0,30.27,WNW,287,1.0,2.0,27,0.00,,,0.00,Wunderground v.1.12,2013-01-28 15:37:00,
2013-01-28 10:44:00,24.7,-3.8,30.27,WNW,287,1.0,2.0,28,0.00,,,0.00,Wunderground v.1.12,2013-01-28 15:44:00,
2013-01-28 10:49:00,25.3,-3.3,30.26,WNW,293,1.0,4.0,28,0.00,,,0.00,Wunderground v.1.12,2013-01-28 15:49:00,
2013-01-28 10:55:00,26.0,-5.1,30.26,WNW,287,0.0,0.0,25,0.00,,,0.00,Wunderground v.1.12,2013-01-28 15:55:00,
2013-01-28 11:00:00,26.1,-4.2,30.26,WNW,287,0.0,0.0,26,0.00,,,0.00,Wunderground v.1.12,2013-01-28 16:00:00,
2013-01-28 11:06:00,26.4,-2.4,30.25,WNW,287,0.0,0.0,28,0.00,,,0.00,Wunderground v.1.12,2013-01-28 16:06:00,
2013-01-28 11:12:00,26.9,-3.5,30.25,WNW,287,0.0,0.0,26,0.00,,,0.00,Wunderground v.1.12,2013-01-28 16:12:00,
2013-01-28 11:19:00,27.2,-4.9,30.24,WNW,293,0.0,4.0,24,0.00,,,0.00,Wunderground v.1.12,2013-01-28 16:19:00,
2013-01-28 11:24:00,27.3,-4.0,30.24,WNW,287,0.0,0.0,25,0.00,,,0.00,Wunderground v.1.12,2013-01-28 16:24:00,
2013-01-28 11:29:00,27.5,-4.6,30.24,WNW,287,0.0,0.0,24,0.00,,,0.00,Wunderground v.1.12,2013-01-28 16:29:00,
2013-01-28 11:35:00,27.6,-4.6,30.23,WNW,287,0.0,2.0,24,0.00,,,0.00,Wunderground v.1.12,2013-01-28 16:35:00,
2013-01-28 11:41:00,27.6,-3.7,30.23,WNW,287,0.0,0.0,25,0.00,,,0.00,Wunderground v.1.12,2013-01-28 16:41:00,
2013-01-28 11:46:00,27.3,-5.7,30.23,WNW,287,1.0,1.0,23,0.00,,,0.00,Wunderground v.1.12,2013-01-28 16:46:00,
2013-01-28 11:52:00,27.5,-5.5,30.22,WNW,287,1.0,1.0,23,0.00,,,0.00,Wunderground v.1.12,2013-01-28 16:52:00,
2013-01-28 11:57:00,27.2,-6.7,30.22,WNW,287,1.0,2.0,22,0.00,,,0.00,Wunderground v.1.12,2013-01-28 16:57:00,
2013-01-28 12:02:00,27.2,-4.9,30.22,WNW,287,1.0,1.0,24,0.00,,,0.00,Wunderground v.1.12,2013-01-28 17:02:00,
2013-01-28 12:09:00,27.6,-5.4,30.20,WNW,287,0.0,1.0,23,0.00,,,0.00,Wunderground v.1.12,2013-01-28 17:09:00,
2013-01-28 12:14:00,27.9,-5.2,30.20,WNW,287,0.0,0.0,23,0.00,,,0.00,Wunderground v.1.12,2013-01-28 17:14:00,
2013-01-28 12:19:00,27.8,-5.3,30.19,WNW,287,0.0,2.0,23,0.00,,,0.00,Wunderground v.1.12,2013-01-28 17:19:00,
2013-01-28 12:25:00,27.9,-5.2,30.19,WNW,287,0.0,0.0,23,0.00,,,0.00,Wunderground v.1.12,2013-01-28 17:25:00,
2013-01-28 12:31:00,28.1,-5.0,30.19,WNW,287,0.0,0.0,23,0.00,,,0.00,Wunderground v.1.12,2013-01-28 17:31:00,
2013-01-28 12:36:00,28.1,-5.0,30.19,WNW,287,0.0,1.0,23,0.00,,,0.00,Wunderground v.1.12,2013-01-28 17:36:00,
2013-01-28 12:41:00,28.2,-3.2,30.19,WNW,287,0.0,1.0,25,0.00,,,0.00,Wunderground v.1.12,2013-01-28 17:41:00,
2013-01-28 12:47:00,27.9,-5.2,30.19,WNW,287,1.0,1.0,23,0.00,,,0.00,Wunderground v.1.12,2013-01-28 17:47:00,
2013-01-28 12:53:00,27.8,-5.3,30.18,WNW,287,2.0,2.0,23,0.00,,,0.00,Wunderground v.1.12,2013-01-28 17:53:00,
2013-01-28 12:59:00,27.8,-6.2,30.18,WNW,287,1.0,5.0,22,0.00,,,0.00,Wunderground v.1.12,2013-01-28 17:59:00,
2013-01-28 13:05:00,27.8,-5.3,30.17,WNW,287,2.0,2.0,23,0.00,,,0.00,Wunderground v.1.12,2013-01-28 18:05:00,
2013-01-28 13:10:00,27.9,-5.2,30.17,WNW,287,1.0,1.0,23,0.00,,,0.00,Wunderground v.1.12,2013-01-28 18:10:00,
2013-01-28 13:16:00,28.2,-2.4,30.17,West,263,0.0,7.0,26,0.00,,,0.00,Wunderground v.1.12,2013-01-28 18:16:00,
2013-01-28 13:21:00,27.6,4.7,30.16,West,269,1.0,7.0,37,0.00,,,0.00,Wunderground v.1.12,2013-01-28 18:21:00,
2013-01-28 13:26:00,27.3,5.6,30.16,SSW,209,3.0,7.0,39,0.00,,,0.00,Wunderground v.1.12,2013-01-28 18:26:00,
2013-01-28 13:32:00,27.3,5.6,30.16,West,276,2.0,3.0,39,0.00,,,0.00,Wunderground v.1.12,2013-01-28 18:32:00,
2013-01-28 13:37:00,27.0,10.8,30.15,WSW,246,2.0,3.0,50,0.00,,,0.00,Wunderground v.1.12,2013-01-28 18:37:00,
2013-01-28 13:42:00,26.7,11.8,30.15,WSW,246,2.0,2.0,53,0.00,,,0.00,Wunderground v.1.12,2013-01-28 18:42:00,
2013-01-28 13:47:00,26.7,11.0,30.15,WSW,246,0.0,1.0,51,0.00,,,0.00,Wunderground v.1.12,2013-01-28 18:47:00,
2013-01-28 13:57:00,26.4,13.2,30.14,WSW,247,1.0,2.0,57,0.00,,,0.00,Wunderground v.1.12,2013-01-28 18:57:00,
2013-01-28 14:04:00,26.1,14.1,30.12,WSW,247,1.0,2.0,60,0.00,,,0.00,Wunderground v.1.12,2013-01-28 19:04:00,
2013-01-28 14:09:00,26.1,14.5,30.12,WSW,247,0.0,1.0,61,0.00,,,0.00,Wunderground v.1.12,2013-01-28 19:09:00,
2013-01-28 14:15:00,26.1,14.8,30.12,WSW,246,0.0,2.0,62,0.00,,,0.00,Wunderground v.1.12,2013-01-28 19:15:00,
2013-01-28 14:21:00,25.8,15.6,30.11,WSW,244,1.0,1.0,65,0.00,,,0.00,Wunderground v.1.12,2013-01-28 19:21:00,
2013-01-28 14:27:00,25.7,16.3,30.11,SW,232,1.0,1.0,67,0.00,,,0.00,Wunderground v.1.12,2013-01-28 19:27:00,
2013-01-28 14:34:00,25.8,16.3,30.11,SW,232,0.0,1.0,67,0.00,,,0.00,Wunderground v.1.12,2013-01-28 19:34:00,
2013-01-28 14:39:00,25.7,16.9,30.11,SW,232,0.0,0.0,69,0.00,,,0.00,Wunderground v.1.12,2013-01-28 19:39:00,
2013-01-28 14:45:00,25.7,16.9,30.11,SW,232,0.0,1.0,69,0.00,,,0.00,Wunderground v.1.12,2013-01-28 19:45:00,
2013-01-28 14:50:00,25.6,16.5,30.11,SW,232,0.0,0.0,68,0.00,,,0.00,Wunderground v.1.12,2013-01-28 19:50:00,
2013-01-28 14:55:00,25.4,16.3,30.11,SW,232,0.0,0.0,68,0.00,,,0.00,Wunderground v.1.12,2013-01-28 19:55:00,
2013-01-28 15:00:00,25.4,16.6,30.11,SW,232,0.0,0.0,69,0.00,,,0.00,Wunderground v.1.12,2013-01-28 20:00:00,
2013-01-28 15:05:00,25.6,16.5,30.09,SW,232,0.0,0.0,68,0.00,,,0.00,Wunderground v.1.12,2013-01-28 20:05:00,
2013-01-28 15:11:00,25.6,16.2,30.09,SW,232,0.0,0.0,67,0.00,,,0.00,Wunderground v.1.12,2013-01-28 20:11:00,
2013-01-28 15:17:00,25.7,16.3,30.09,SW,232,0.0,1.0,67,0.00,,,0.00,Wunderground v.1.12,2013-01-28 20:17:00,
2013-01-28 15:22:00,25.6,16.2,30.09,SW,232,0.0,0.0,67,0.00,,,0.00,Wunderground v.1.12,2013-01-28 20:22:00,
2013-01-28 15:29:00,25.4,16.6,30.09,SW,232,0.0,2.0,69,0.00,,,0.00,Wunderground v.1.12,2013-01-28 20:29:00,
2013-01-28 15:34:00,25.4,17.0,30.10,SW,232,0.0,0.0,70,0.00,,,0.00,Wunderground v.1.12,2013-01-28 20:34:00,
2013-01-28 15:40:00,25.3,17.2,30.10,SW,232,0.0,0.0,71,0.00,,,0.00,Wunderground v.1.12,2013-01-28 20:40:00,
2013-01-28 15:46:00,25.3,17.9,30.10,SW,232,0.0,0.0,73,0.00,,,0.00,Wunderground v.1.12,2013-01-28 20:46:00,
2013-01-28 15:52:00,25.3,18.2,30.10,SW,232,0.0,0.0,74,0.00,,,0.00,Wunderground v.1.12,2013-01-28 20:52:00,
2013-01-28 15:58:00,25.3,18.5,30.10,SW,232,0.0,0.0,75,0.00,,,0.00,Wunderground v.1.12,2013-01-28 20:58:00,
2013-01-28 16:04:00,25.1,18.6,30.09,SW,232,0.0,0.0,76,0.00,,,0.00,Wunderground v.1.12,2013-01-28 21:04:00,
2013-01-28 16:10:00,25.0,18.8,30.09,SW,232,0.0,0.0,77,0.00,,,0.00,Wunderground v.1.12,2013-01-28 21:10:00,
2013-01-28 16:15:00,24.8,19.2,30.09,SW,232,0.0,0.0,79,0.00,,,0.00,Wunderground v.1.12,2013-01-28 21:15:00,
2013-01-28 16:20:00,24.7,19.4,30.09,SW,232,0.0,0.0,80,0.00,,,0.00,Wunderground v.1.12,2013-01-28 21:20:00,
2013-01-28 16:25:00,24.5,19.5,30.09,SW,232,0.0,0.0,81,0.00,,,0.00,Wunderground v.1.12,2013-01-28 21:25:00,
2013-01-28 16:30:00,24.4,19.7,30.09,SW,232,0.0,0.0,82,0.00,,,0.00,Wunderground v.1.12,2013-01-28 21:30:00,
2013-01-28 16:36:00,24.2,19.8,30.08,SW,232,0.0,0.0,83,0.00,,,0.00,Wunderground v.1.12,2013-01-28 21:36:00,
2013-01-28 16:41:00,24.2,19.8,30.08,SW,232,0.0,0.0,83,0.00,,,0.00,Wunderground v.1.12,2013-01-28 21:41:00,
2013-01-28 16:46:00,24.1,20.0,30.08,SW,232,0.0,0.0,84,0.00,,,0.00,Wunderground v.1.12,2013-01-28 21:46:00,
2013-01-28 16:52:00,23.9,20.0,30.07,SW,232,0.0,0.0,85,0.00,,,0.00,Wunderground v.1.12,2013-01-28 21:52:00,
2013-01-28 16:58:00,23.9,20.3,30.07,SW,232,0.0,0.0,86,0.00,,,0.00,Wunderground v.1.12,2013-01-28 21:58:00,
2013-01-28 17:03:00,23.9,20.3,30.06,SW,232,0.0,0.0,86,0.00,,,0.00,Wunderground v.1.12,2013-01-28 22:03:00,
2013-01-28 17:08:00,23.9,20.3,30.06,SW,232,0.0,0.0,86,0.00,,,0.00,Wunderground v.1.12,2013-01-28 22:08:00,
2013-01-28 17:14:00,24.1,20.8,30.06,SW,232,0.0,0.0,87,0.00,,,0.00,Wunderground v.1.12,2013-01-28 22:14:00,
2013-01-28 17:20:00,24.1,20.8,30.05,SW,232,0.0,0.0,87,0.00,,,0.00,Wunderground v.1.12,2013-01-28 22:20:00,
2013-01-28 17:25:00,24.2,21.2,30.05,SW,232,0.0,0.0,88,0.00,,,0.00,Wunderground v.1.12,2013-01-28 22:25:00,
2013-01-28 17:31:00,24.2,21.2,30.05,SW,232,0.0,0.0,88,0.00,,,0.00,Wunderground v.1.12,2013-01-28 22:31:00,
2013-01-28 17:37:00,24.2,21.2,30.04,SW,232,0.0,0.0,88,0.00,,,0.00,Wunderground v.1.12,2013-01-28 22:37:00,
2013-01-28 17:44:00,24.2,21.2,30.04,SW,232,0.0,0.0,88,0.00,,,0.00,Wunderground v.1.12,2013-01-28 22:44:00,
2013-01-28 17:49:00,24.4,21.4,30.02,SW,232,0.0,0.0,88,0.00,,,0.00,Wunderground v.1.12,2013-01-28 22:49:00,
2013-01-28 17:54:00,24.4,21.4,30.02,SW,232,0.0,0.0,88,0.00,,,0.00,Wunderground v.1.12,2013-01-28 22:54:00,
2013-01-28 17:59:00,24.4,21.6,30.02,SW,232,0.0,0.0,89,0.00,,,0.00,Wunderground v.1.12,2013-01-28 22:59:00,
2013-01-28 18:04:00,24.4,21.6,30.04,SW,232,0.0,0.0,89,0.00,,,0.00,Wunderground v.1.12,2013-01-28 23:04:00,
2013-01-28 18:09:00,24.4,21.6,30.04,SW,232,0.0,0.0,89,0.00,,,0.00,Wunderground v.1.12,2013-01-28 23:09:00,
2013-01-28 18:14:00,24.4,21.6,30.04,SW,232,0.0,0.0,89,0.00,,,0.00,Wunderground v.1.12,2013-01-28 23:14:00,
2013-01-28 18:20:00,24.4,21.6,30.02,SW,232,0.0,0.0,89,0.00,,,0.00,Wunderground v.1.12,2013-01-28 23:20:00,
2013-01-28 18:26:00,24.4,21.6,30.02,SW,232,0.0,0.0,89,0.00,,,0.00,Wunderground v.1.12,2013-01-28 23:26:00,
2013-01-28 18:32:00,24.4,21.6,30.02,SW,232,0.0,0.0,89,0.00,,,0.00,Wunderground v.1.12,2013-01-28 23:32:00,
2013-01-28 18:37:00,24.4,21.6,30.02,SW,232,0.0,0.0,89,0.00,,,0.00,Wunderground v.1.12,2013-01-28 23:37:00,
2013-01-28 18:43:00,24.4,21.6,30.02,SW,232,0.0,0.0,89,0.00,,,0.00,Wunderground v.1.12,2013-01-28 23:43:00,
2013-01-28 18:49:00,24.4,21.6,30.01,SW,232,0.0,0.0,89,0.00,,,0.00,Wunderground v.1.12,2013-01-28 23:49:00,
2013-01-28 18:54:00,24.2,21.4,30.01,SW,232,0.0,0.0,89,0.00,,,0.00,Wunderground v.1.12,2013-01-28 23:54:00,
2013-01-28 19:00:00,24.2,21.4,30.01,SW,232,0.0,0.0,89,0.00,,,0.00,Wunderground v.1.12,2013-01-29 00:00:00,
2013-01-28 19:05:00,24.2,21.4,30.01,SW,232,0.0,0.0,89,0.00,,,0.00,Wunderground v.1.12,2013-01-29 00:05:00,
2013-01-28 19:10:00,24.2,21.7,30.01,SW,232,0.0,0.0,90,0.00,,,0.00,Wunderground v.1.12,2013-01-29 00:10:00,
2013-01-28 19:16:00,24.1,21.3,30.01,SW,232,0.0,0.0,89,0.00,,,0.00,Wunderground v.1.12,2013-01-29 00:16:00,
2013-01-28 19:21:00,24.1,21.3,30.00,SW,232,0.0,2.0,89,0.00,,,0.00,Wunderground v.1.12,2013-01-29 00:21:00,
2013-01-28 19:26:00,23.9,21.1,30.00,SW,232,0.0,0.0,89,0.00,,,0.00,Wunderground v.1.12,2013-01-29 00:26:00,
2013-01-28 19:31:00,23.9,21.1,30.00,SW,232,0.0,0.0,89,0.00,,,0.00,Wunderground v.1.12,2013-01-29 00:31:00,
2013-01-28 19:37:00,23.8,21.0,30.00,SW,232,0.0,1.0,89,0.00,,,0.00,Wunderground v.1.12,2013-01-29 00:37:00,
2013-01-28 19:42:00,23.6,20.8,30.00,SW,232,0.0,1.0,89,0.00,,,0.00,Wunderground v.1.12,2013-01-29 00:42:00,
2013-01-28 19:49:00,23.6,20.8,30.00,SW,232,0.0,0.0,89,0.00,,,0.00,Wunderground v.1.12,2013-01-29 00:49:00,
2013-01-28 19:54:00,23.6,20.8,30.00,SW,225,0.0,4.0,89,0.00,,,0.00,Wunderground v.1.12,2013-01-29 00:54:00,
2013-01-28 19:59:00,23.5,20.7,30.00,SW,232,0.0,0.0,89,0.00,,,0.00,Wunderground v.1.12,2013-01-29 00:59:00,
2013-01-28 20:05:00,23.3,20.5,29.99,SW,232,0.0,0.0,89,0.00,,,0.00,Wunderground v.1.12,2013-01-29 01:05:00,
2013-01-28 20:10:00,23.3,20.5,29.99,SW,232,0.0,0.0,89,0.00,,,0.00,Wunderground v.1.12,2013-01-29 01:10:00,
2013-01-28 20:16:00,23.3,20.8,29.99,SW,232,0.0,0.0,90,0.00,,,0.00,Wunderground v.1.12,2013-01-29 01:16:00,
2013-01-28 20:22:00,23.3,20.8,29.98,SW,232,0.0,0.0,90,0.00,,,0.00,Wunderground v.1.12,2013-01-29 01:22:00,
2013-01-28 20:27:00,23.3,20.8,29.98,SW,232,0.0,0.0,90,0.00,,,0.00,Wunderground v.1.12,2013-01-29 01:27:00,
2013-01-28 20:33:00,23.2,20.7,29.97,SW,232,0.0,0.0,90,0.00,,,0.00,Wunderground v.1.12,2013-01-29 01:33:00,
2013-01-28 20:41:00,23.2,20.7,29.97,SW,232,0.0,0.0,90,0.00,,,0.00,Wunderground v.1.12,2013-01-29 01:41:00,
2013-01-28 20:47:00,23.2,20.7,29.97,SW,232,0.0,0.0,90,0.00,,,0.00,Wunderground v.1.12,2013-01-29 01:47:00,
2013-01-28 20:52:00,23.0,20.5,29.97,SW,232,0.0,0.0,90,0.00,,,0.00,Wunderground v.1.12,2013-01-29 01:52:00,
2013-01-28 20:58:00,23.0,20.5,29.97,SW,232,0.0,0.0,90,0.00,,,0.00,Wunderground v.1.12,2013-01-29 01:58:00,
2013-01-28 21:04:00,22.9,20.4,29.97,SW,232,0.0,0.0,90,0.00,,,0.00,Wunderground v.1.12,2013-01-29 02:04:00,
2013-01-28 21:09:00,22.9,20.4,29.97,SW,232,0.0,1.0,90,0.00,,,0.00,Wunderground v.1.12,2013-01-29 02:09:00,
2013-01-28 21:15:00,22.9,20.4,29.97,SW,232,0.0,0.0,90,0.00,,,0.00,Wunderground v.1.12,2013-01-29 02:15:00,
2013-01-28 21:21:00,22.9,20.4,29.96,SW,232,0.0,0.0,90,0.00,,,0.00,Wunderground v.1.12,2013-01-29 02:21:00,
2013-01-28 21:27:00,22.9,20.1,29.96,SW,232,0.0,2.0,89,0.00,,,0.00,Wunderground v.1.12,2013-01-29 02:27:00,
2013-01-28 21:33:00,22.9,20.1,29.95,SW,232,1.0,1.0,89,0.00,,,0.00,Wunderground v.1.12,2013-01-29 02:33:00,
2013-01-28 21:38:00,23.0,20.5,29.95,SW,232,1.0,1.0,90,0.00,,,0.00,Wunderground v.1.12,2013-01-29 02:38:00,
2013-01-28 21:44:00,22.9,20.4,29.95,SW,232,1.0,3.0,90,0.00,,,0.00,Wunderground v.1.12,2013-01-29 02:44:00,
2013-01-28 21:49:00,22.9,20.4,29.96,SW,235,1.0,4.0,90,0.00,,,0.00,Wunderground v.1.12,2013-01-29 02:49:00,
2013-01-28 21:54:00,22.9,20.4,29.96,SW,236,1.0,2.0,90,0.00,,,0.00,Wunderground v.1.12,2013-01-29 02:54:00,
2013-01-28 22:00:00,22.9,20.4,29.96,SW,236,0.0,0.0,90,0.00,,,0.00,Wunderground v.1.12,2013-01-29 03:00:00,
2013-01-28 22:05:00,22.9,20.4,29.95,SW,236,1.0,1.0,90,0.00,,,0.00,Wunderground v.1.12,2013-01-29 03:05:00,
2013-01-28 22:11:00,23.0,20.5,29.95,SW,236,0.0,0.0,90,0.00,,,0.00,Wunderground v.1.12,2013-01-29 03:11:00,
2013-01-28 22:16:00,23.2,20.7,29.95,SW,236,0.0,0.0,90,0.00,,,0.00,Wunderground v.1.12,2013-01-29 03:16:00,
2013-01-28 22:22:00,23.0,20.5,29.94,SW,236,0.0,0.0,90,0.00,,,0.00,Wunderground v.1.12,2013-01-29 03:22:00,
2013-01-28 22:29:00,23.0,20.5,29.94,SW,236,1.0,2.0,90,0.00,,,0.00,Wunderground v.1.12,2013-01-29 03:29:00,
2013-01-28 22:34:00,23.0,20.5,29.94,SW,236,0.0,1.0,90,0.00,,,0.00,Wunderground v.1.12,2013-01-29 03:34:00,
2013-01-28 22:40:00,23.0,20.5,29.94,SW,236,0.0,0.0,90,0.00,,,0.00,Wunderground v.1.12,2013-01-29 03:40:00,
2013-01-28 22:46:00,23.0,20.5,29.94,SW,236,0.0,0.0,90,0.00,,,0.00,Wunderground v.1.12,2013-01-29 03:46:00,
2013-01-28 22:52:00,23.0,20.5,29.94,SW,236,0.0,2.0,90,0.00,,,0.00,Wunderground v.1.12,2013-01-29 03:52:00,
2013-01-28 22:57:00,23.0,20.5,29.94,SW,236,1.0,1.0,90,0.00,,,0.00,Wunderground v.1.12,2013-01-29 03:57:00,
2013-01-28 23:02:00,22.9,20.4,29.94,SW,236,1.0,2.0,90,0.00,,,0.00,Wunderground v.1.12,2013-01-29 04:02:00,
2013-01-28 23:09:00,22.9,20.4,29.94,WSW,240,1.0,3.0,90,0.00,,,0.00,Wunderground v.1.12,2013-01-29 04:09:00,
2013-01-28 23:14:00,22.9,20.4,29.94,WSW,244,2.0,4.0,90,0.00,,,0.00,Wunderground v.1.12,2013-01-29 04:14:00,
2013-01-28 23:19:00,22.9,20.4,29.94,WSW,244,1.0,4.0,90,0.00,,,0.00,Wunderground v.1.12,2013-01-29 04:19:00,
2013-01-28 23:24:00,22.9,20.4,29.94,WSW,244,1.0,2.0,90,0.00,,,0.00,Wunderground v.1.12,2013-01-29 04:24:00,
2013-01-28 23:29:00,22.9,20.4,29.94,WSW,244,1.0,1.0,90,0.00,,,0.00,Wunderground v.1.12,2013-01-29 04:29:00,
2013-01-28 23:35:00,22.9,20.4,29.94,WSW,244,0.0,1.0,90,0.00,,,0.00,Wunderground v.1.12,2013-01-29 04:35:00,
2013-01-28 23:40:00,22.9,20.1,29.94,WSW,245,1.0,1.0,89,0.00,,,0.00,Wunderground v.1.12,2013-01-29 04:40:00,
2013-01-28 23:46:00,22.9,20.4,29.94,WSW,245,1.0,1.0,90,0.00,,,0.00,Wunderground v.1.12,2013-01-29 04:46:00,
2013-01-28 23:52:00,22.9,20.4,29.94,WSW,245,1.0,1.0,90,0.00,,,0.00,Wunderground v.1.12,2013-01-29 04:52:00,
2013-01-28 23:58:00,23.0,20.2,29.94,WSW,245,0.0,1.0,89,0.00,,,0.00,Wunderground v.1.12,2013-01-29 04:58:00,